Weather Roundup
Issued by NWS Chicago, IL

Home | Current Version | Previous Version | Graphics & Text | Print | Product List | Glossary On
Versions: 1 2 3 4 5 6 7 8 9 10 11 12 13 14 15 16 17 18 19 20 21 22 23 24 25 26 27 28 29 30 31 32 33 34 35 36 37 38 39 40 41 42 43 44 45 46 47 48 49 50
379
NZUS59 KLOT 111203
HRRLOT

CHICAGO AREA WEATHER ROUNDUP
NATIONAL WEATHER SERVICE CHICAGO/ROMEOVILLE IL
600 AM CST THU FEB 11 2016

NOTE: "FAIR" INDICATES FEW OR NO CLOUDS BELOW 12,000 FEET WITH NO
SIGNIFICANT WEATHER AND/OR OBSTRUCTIONS TO VISIBILITY.

* THESE STATIONS ARE NOT UNDER NWS QUALITY CONTROL. THEY ALSO MAY NOT
  REPORT WEATHER SUCH AS PRECIPITATION OR FOG.

ILZ005-006-012>014-019>023-111300-
NORTHEAST ILLINOIS

CITY           SKY/WX    TMP DP  RH WIND       PRES   REMARKS
OHARE          PTCLDY     7  -3  64 N9        30.26R WCI  -7
6HR MIN TEMP:   7; 6HR MAX TEMP:  12;

MIDWAY         PTCLDY    10  -3  55 NW10      30.26R WCI  -4
6HR MIN TEMP:  10; 6HR MAX TEMP:  14;

AURORA         CLEAR      7   0  73 NW7       30.27R WCI  -5
6HR MIN TEMP:   7; 6HR MAX TEMP:  10;

WAUKEGAN       CLEAR      3  -3  76 NW5       30.24R WCI  -6
6HR MIN TEMP:   3; 6HR MAX TEMP:   8;

DUPAGE AIRPORT CLEAR      4  -4  69 CALM      30.25R
6HR MIN TEMP:   3; 6HR MAX TEMP:  11;

WHEELING       CLEAR      6  -3  66 NW7       30.27R WCI  -6
6HR MIN TEMP:   6; 6HR MAX TEMP:  11;

$$

WIZ051-052-058>065-066-070>072-111300-
SOUTHEAST WISCONSIN

CITY           SKY/WX    TMP DP  RH WIND       PRES   REMARKS
MILWAUKEE      CLEAR      5  -5  63 NW9       30.25R WCI  -9
6HR MIN TEMP:   5; 6HR MAX TEMP:   9;

KENOSHA*       CLEAR      5  -4  66 NW6       30.24R WCI  -6
RACINE*        CLEAR      4  -5  66 NW9       30.26R WCI -10
BURLINGTON     CLEAR      1  -6  71 NW6       30.25R WCI -10
WAUKESHA       CLEAR      0  -6  78 CALM      30.24R
$$

INZ001>003-010>013-019-020-111300-
NORTHWEST INDIANA

CITY           SKY/WX    TMP DP  RH WIND       PRES   REMARKS
GARY*          PTCLDY    12   0  57 W12       30.26R WCI  -2
MICHIGAN CITY* NOT AVBL
RENSSELAER*    NOT AVBL
VALPARAISO     CLOUDY    13   4  67 W10       30.21R WCI   0
$$

LMZ740>746-111300-
SOUTHERN LAKE MICHIGAN

STATION/POSITION TIME  SKY/WX   TEMP WIND        PRES    VSBY
                                AIR  DIR/SP/G
                 (UTC)          (F)  (DEG/KT/KT) (MB)    (MI)
HARRISON CRIB    1100            13  310/ 15/ 16   N/A
BURNHAM HARBOR   1200            12  290/  4/  8   N/A
CALUMET HARBOR   1100            11  280/  5/  8 1023.0
BURNS HARBOR     1102            18  320/ 14/ 21 1023.0R
MICHIGAN CITY    1100            19  310/ 19/ 23   N/A
$$

ABBREVIATIONS USED IN REMARKS
   TC - TEMPERATURE IN CELSIUS
  WCI - WIND CHILL INDEX
   HX - HEAT INDEX
  VSB - VISIBILITY
$$




USA.gov is the U.S. government's official web portal to all federal, state and local government web resources and services.